User: anonymous
Location: Drayton Valley
(53.2170°N, 114.9830°W)
Time: 22:37:13
(UTC-06:00)
Language:

MOZ.5/SAFIR/RUBIN 5/SL-8 - Orbit

View from above orbital plane
View from above orbital plane
View from above satellite
View from above satellite

Ground track
Ground track

The orbit data is extracted from the following two-line orbital elements,

1 28898U 05043G   14209.50288628  .00000223  00000-0  56035-4 0  8788
2 28898 097.8376 036.7941 0018742 264.6668 153.4479 14.59499545465954
Epoch (UTC): 28 July 2014 12:04:09
Eccentricity: 0.0018742
inclination: 97.8376°
perigee height: 681 km
apogee height: 708 km
right ascension of ascending node: 36.7941°
argument of perigee: 264.6668°
revolutions per day: 14.59499545
mean anomaly at epoch: 153.4479°
orbit number at epoch: 46595

The dashed part of the orbit path shows where the satellite is in the earth's shadow,  

DLR